Location: Little Elm
(33.1626°N, 96.9375°W)
Time: 01:51:59
(UTC+00:00)

H-2A R/B - Pass Details

Date: 30 June 2022
Orbit: 491 x 536 km, 97.3° (Epoch: 01 April)

Event Time Altitude Azimuth Distance (km) Brightness Sun altitude
Rises 10:17:21 0° 32° (NNE) 2,604 7.7 -12.1°
Reaches altitude 10° 10:20:00 10° 52° (NE) 1,722 6.9 -11.7°
Maximum altitude 10:22:31 17° 95° (E) 1,330 5.4 -11.3°
Drops below altitude 10° 10:25:02 10° 138° (SE) 1,729 5.4 -10.9°
Sets 10:27:41 0° 158° (SSE) 2,618 6.1 -10.4°
